Wisconsin Rapids, WI

10:27 AM CDT on May 25, 2018 (GMT -0500)
Alexander Field South Wood County

Weather History for KISW - September, 2013

Change the Weather History Date:

Sunday, September 15, 2013

  Actual Average Record
Temperature  
Mean Temperature 60 °F -  
Max Temperature 68 °F 67 °F 88 °F (2017)
Min Temperature 51 °F 46 °F 27 °F (2007)
Degree Days  
Heating Degree Days 4    
Growing Degree Days 10 (Base 50)    
Moisture  
Dew Point 53 °F    
Average Humidity 85    
Maximum Humidity 100    
Minimum Humidity 56    
Precipitation  
Precipitation 0.66 in - - ()
Sea Level Pressure  
Sea Level Pressure 30.08 in    
Wind  
Wind Speed 6 mph (ENE)    
Max Wind Speed 18 mph    
Max Gust Speed 24 mph    
Visibility 8 miles    
Events Rain    
Averages and records for this station are not official NWS values.
T = Trace of Precipitation, MM = Missing Value Source: NWS Daily Summary

Daily Weather History Graph

Daily Weather History Graph

Search for Another Location

Airport or City:

Astronomy

Sep. 15, 2013 Rise Set
Actual Time 6:38 AM CDT 7:09 PM CDT
Civil Twilight 6:09 AM CDT 7:38 PM CDT
Nautical Twilight 5:34 AM CDT 8:12 PM CDT
Astronomical Twilight 4:59 AM CDT 8:48 PM CDT
Moon 4:43 PM CDT (9/15) 2:08 AM CDT (9/15)
Length of Visible Light 13h 29m
Length of Day
12h 30m
Waxing Gibbous, 82% of the Moon is Illuminated
Sep 15
Waxing Gibbous
Sep 19
Full
Sep 26
Last Quarter
Oct 4
New
Oct 11
First Quarter

Hourly Weather History & Observations

Time (CDT) Temp. Dew Point Humidity Pressure Visibility Wind Dir Wind Speed Gust Speed Precip Events Conditions
12:54 AM 55.9 °F 54.0 °F 93% 30.01 in 9.0 mi Calm Calm - 0.09 in Rain Light Rain
1:54 AM 55.0 °F 53.1 °F 93% 30.03 in 6.0 mi SW 4.6 mph - 0.08 in Rain Rain
2:54 AM 54.0 °F 53.1 °F 97% 30.01 in 7.0 mi SSE 3.5 mph - 0.06 in Rain Light Rain
3:54 AM 54.0 °F 53.1 °F 97% 29.99 in 10.0 mi SE 3.5 mph - 0.01 in   Overcast
4:54 AM 54.0 °F 53.1 °F 97% 29.97 in 10.0 mi SSE 5.8 mph - N/A   Overcast
5:19 AM 53.6 °F 53.6 °F 100% 29.97 in 10.0 mi SSE 4.6 mph - N/A   Overcast
5:54 AM 54.0 °F 53.1 °F 97% 29.97 in 8.0 mi SE 3.5 mph - N/A   Unknown
6:03 AM 53.6 °F 53.6 °F 100% 29.97 in 8.0 mi ESE 3.5 mph - N/A   Overcast
6:30 AM 53.6 °F 53.6 °F 100% 29.98 in 2.5 mi ESE 3.5 mph - 0.01 in Rain Rain
6:54 AM 54.0 °F 53.1 °F 97% 29.99 in 3.0 mi ESE 3.5 mph - 0.05 in Rain Light Rain
7:22 AM 53.6 °F 53.6 °F 100% 29.99 in 4.0 mi ENE 3.5 mph - 0.04 in Rain Rain
7:41 AM 53.6 °F 53.6 °F 100% 30.00 in 4.0 mi ENE 4.6 mph - 0.09 in Rain Rain
7:54 AM 55.0 °F 53.1 °F 93% 30.00 in 6.0 mi ENE 6.9 mph - 0.11 in Rain Rain
8:24 AM 55.4 °F 53.6 °F 94% 30.00 in 5.0 mi ENE 4.6 mph - 0.08 in Rain Light Rain
8:54 AM 55.0 °F 53.1 °F 93% 30.02 in 3.0 mi East 5.8 mph - 0.10 in Rain Rain
8:57 AM 55.4 °F 53.6 °F 94% 30.01 in 2.5 mi East 5.8 mph - 0.02 in Rain Heavy Rain
9:05 AM 55.4 °F 53.6 °F 94% 30.01 in 3.0 mi East 5.8 mph - 0.04 in Rain Rain
9:27 AM 55.4 °F 53.6 °F 94% 30.02 in 3.0 mi East 5.8 mph - 0.14 in Rain Heavy Rain
9:32 AM 55.4 °F 53.6 °F 94% 30.02 in 4.0 mi East 6.9 mph - 0.15 in Rain Rain
9:54 AM 55.0 °F 54.0 °F 96% 30.03 in 10.0 mi East 5.8 mph - 0.16 in Rain Light Rain
10:08 AM 55.4 °F 53.6 °F 94% 30.03 in 10.0 mi East 5.8 mph - 0.00 in   Overcast
10:27 AM 55.4 °F 53.6 °F 94% 30.03 in 10.0 mi East 8.1 mph - 0.00 in   Overcast
10:54 AM 57.0 °F 55.0 °F 93% 30.04 in 10.0 mi East 6.9 mph - 0.00 in   Overcast
11:07 AM 57.2 °F 53.6 °F 88% 30.04 in 10.0 mi East 8.1 mph - N/A   Overcast
11:22 AM 57.2 °F 55.4 °F 94% 30.04 in 10.0 mi East 5.8 mph - N/A   Overcast
11:54 AM 59.0 °F 54.0 °F 83% 30.05 in 10.0 mi NE 4.6 mph - N/A   Overcast
12:08 PM 57.2 °F 53.6 °F 88% 30.05 in 10.0 mi NE 6.9 mph - N/A   Overcast
12:54 PM 60.1 °F 54.0 °F 80% 30.07 in 10.0 mi ENE 6.9 mph - N/A   Overcast
1:54 PM 63.0 °F 53.1 °F 70% 30.08 in 10.0 mi NNE 9.2 mph - N/A   Overcast
2:13 PM 62.6 °F 53.6 °F 72% 30.08 in 10.0 mi NNE 8.1 mph - N/A   Overcast
2:28 PM 62.6 °F 53.6 °F 72% 30.08 in 10.0 mi NNE 11.5 mph - N/A   Overcast
2:54 PM 66.0 °F 53.1 °F 63% 30.09 in 10.0 mi NNE 9.2 mph - N/A   Mostly Cloudy
3:54 PM 68.0 °F 52.0 °F 56% 30.10 in 10.0 mi NNE 5.8 mph - N/A   Mostly Cloudy
4:54 PM 64.9 °F 53.1 °F 65% 30.12 in 10.0 mi North 9.2 mph - N/A   Overcast
5:06 PM 64.4 °F 53.6 °F 68% 30.13 in 10.0 mi NNE 6.9 mph - N/A   Overcast
5:20 PM 64.4 °F 53.6 °F 68% 30.13 in 10.0 mi NNE 10.4 mph - N/A   Overcast
5:54 PM 61.0 °F 54.0 °F 78% 30.16 in 10.0 mi North 12.7 mph - 0.00 in Rain Light Rain
6:54 PM 60.1 °F 53.1 °F 78% 30.19 in 10.0 mi NNE 15.0 mph 20.7 mph 0.00 in   Overcast
7:36 PM 59.0 °F 51.8 °F 77% 30.20 in 10.0 mi North 15.0 mph - N/A   Overcast
7:49 PM 57.2 °F 50.0 °F 77% 30.21 in 10.0 mi NNE 17.3 mph 24.2 mph N/A   Overcast
7:54 PM 57.9 °F 50.0 °F 75% 30.22 in 10.0 mi NNE 17.3 mph 24.2 mph N/A   Overcast
8:01 PM 57.2 °F 50.0 °F 77% 30.22 in 10.0 mi NNE 18.4 mph 24.2 mph N/A   Overcast
8:54 PM 55.9 °F 48.0 °F 75% 30.25 in 10.0 mi NNE 10.4 mph 23.0 mph N/A   Overcast
9:54 PM 55.0 °F 45.0 °F 69% 30.28 in 10.0 mi NE 11.5 mph - N/A   Overcast
10:54 PM 53.1 °F 44.1 °F 71% 30.30 in 10.0 mi NE 9.2 mph - N/A   Overcast
11:54 PM 51.1 °F 42.1 °F 71% 30.32 in 10.0 mi ENE 11.5 mph - N/A   Overcast